Location: Newark
(52.3735°N, 16.9806°E)
Time: 06:09:29
(UTC+00:00)

Nauka - Pass Details

Date: 30 September 2021
Orbit: 417 x 423 km, 51.6° (Epoch: 23 October)

Event Time Altitude Azimuth Distance (km) Brightness Sun altitude
Rises 17:26:31 0° 279° (W) 2,365 ? -9.2°
Reaches altitude 10° 17:28:38 10° 275° (W) 1,500 ? -9.6°
Maximum altitude 17:31:57 60° 195° (SSW) 484 ? -10.1°
Enters shadow 17:34:37 15° 117° (ESE) 1,237 ? -10.5°
